Location: Unspecified
(0.0000°N, 0.0000°E)
Time: 00:17:45
(UTC+00:00)

Explorer 11/Cluster Stage 4 - Visible Passes

Search period start: 20 November 2017 00:00
Search period end: 30 November 2017 00:00
Orbit: 467 x 1262 km, 28.8° (Epoch: 18 November)

Date Brightness Start Highest point End Pass type
(mag) Time Alt. Az. Time Alt. Az. Time Alt. Az.
20 Nov 8.4 04:05:31 21° N 04:05:31 21° N 04:08:27 10° NNE visible
21 Nov 8.8 03:56:28 15° N 03:56:28 15° N 03:57:59 10° NNE visible
22 Nov 9.2 03:47:17 11° N 03:47:17 11° N 03:47:28 10° NNE visible
25 Nov 9.7 21:26:49 10° SSW 21:27:17 12° SSW 21:27:17 12° SSW visible
26 Nov 9.5 21:16:22 10° SSW 21:17:21 14° SSW 21:17:21 14° SSW visible
27 Nov 9.3 21:05:58 10° SW 21:07:29 17° SSW 21:07:29 17° SSW visible
28 Nov 9.1 19:11:17 10° SSE 19:12:40 11° SSE 19:14:08 10° SE visible
28 Nov 9.0 20:55:38 10° SW 20:57:39 21° SSW 20:57:39 21° SSW visible
29 Nov 9.0 19:00:12 10° S 19:02:31 12° SSE 19:04:59 10° SE visible
29 Nov 8.7 20:45:20 10° SW 20:47:52 25° SSW 20:47:52 25° SSW visible
